TimeAKST,TemperatureF,Dew PointF,Humidity,Sea Level PressureIn,VisibilityMPH,Wind Direction,Wind SpeedMPH,Gust SpeedMPH,PrecipitationIn,Events,Conditions,WindDirDegrees,DateUTC
12:53 AM,42.1,39.0,89,30.16,10.0,NE,3.5,-,N/A,,Overcast,50,2013-01-21 09:53:00
1:53 AM,42.1,37.9,85,30.15,10.0,Calm,Calm,-,N/A,,Overcast,0,2013-01-21 10:53:00
2:46 AM,42.8,37.4,81,30.13,10.0,Calm,Calm,-,N/A,,Overcast,0,2013-01-21 11:46:00
3:53 AM,42.1,37.9,85,30.14,10.0,Calm,Calm,-,N/A,,Overcast,0,2013-01-21 12:53:00
4:53 AM,42.1,39.0,89,30.12,10.0,Calm,Calm,-,N/A,,Overcast,0,2013-01-21 13:53:00
5:53 AM,42.1,37.9,85,30.10,10.0,NE,4.6,-,N/A,,Overcast,50,2013-01-21 14:53:00
6:53 AM,39.9,37.9,93,30.09,10.0,Calm,Calm,-,N/A,,Mostly Cloudy,0,2013-01-21 15:53:00
7:02 AM,39.2,37.4,93,30.08,10.0,Calm,Calm,-,N/A,,Scattered Clouds,0,2013-01-21 16:02:00
7:53 AM,37.9,36.0,93,30.07,10.0,NE,4.6,-,N/A,,Partly Cloudy,40,2013-01-21 16:53:00
8:42 AM,39.2,37.4,93,30.07,10.0,Calm,Calm,-,N/A,,Overcast,0,2013-01-21 17:42:00
8:53 AM,39.9,37.9,93,30.07,10.0,Calm,Calm,-,N/A,,Overcast,0,2013-01-21 17:53:00
9:39 AM,42.8,37.4,81,30.06,10.0,Calm,Calm,-,N/A,,Overcast,0,2013-01-21 18:39:00
9:53 AM,42.1,37.9,85,30.06,10.0,ENE,3.5,-,N/A,,Overcast,60,2013-01-21 18:53:00
10:05 AM,42.8,37.4,81,30.06,10.0,Calm,Calm,-,N/A,,Overcast,0,2013-01-21 19:05:00
10:53 AM,44.1,37.9,79,30.05,10.0,Calm,Calm,-,N/A,,Overcast,0,2013-01-21 19:53:00
11:53 AM,44.1,37.9,79,30.03,10.0,Calm,Calm,-,N/A,,Overcast,0,2013-01-21 20:53:00
12:53 PM,44.1,37.0,76,30.01,10.0,Calm,Calm,-,N/A,,Overcast,0,2013-01-21 21:53:00
1:53 PM,44.1,37.0,76,29.99,10.0,Calm,Calm,-,N/A,,Overcast,0,2013-01-21 22:53:00
2:53 PM,43.0,37.0,80,29.97,10.0,Calm,Calm,-,N/A,,Overcast,0,2013-01-21 23:53:00
3:53 PM,42.1,37.0,82,29.95,10.0,Calm,Calm,-,N/A,,Mostly Cloudy,0,2013-01-22 00:53:00
4:25 PM,41.0,35.6,81,29.93,10.0,Calm,Calm,-,N/A,,Scattered Clouds,0,2013-01-22 01:25:00
4:53 PM,39.9,36.0,86,29.92,10.0,Calm,Calm,-,N/A,,Partly Cloudy,0,2013-01-22 01:53:00
5:53 PM,39.0,35.1,86,29.91,10.0,East,3.5,-,N/A,,Clear,80,2013-01-22 02:53:00
6:53 PM,37.9,34.0,86,29.88,10.0,Calm,Calm,-,N/A,,Clear,0,2013-01-22 03:53:00
7:53 PM,36.0,33.1,89,29.86,10.0,NE,3.5,-,N/A,,Clear,50,2013-01-22 04:53:00
8:53 PM,37.0,34.0,89,29.85,10.0,ENE,3.5,-,N/A,,Clear,60,2013-01-22 05:53:00
9:53 PM,37.9,35.1,89,29.83,10.0,Calm,Calm,-,N/A,,Clear,0,2013-01-22 06:53:00
10:53 PM,37.9,34.0,86,29.82,10.0,Calm,Calm,-,N/A,,Clear,0,2013-01-22 07:53:00
11:53 PM,37.9,34.0,86,29.81,10.0,NE,4.6,-,N/A,,Clear,40,2013-01-22 08:53:00